Weather History for West Palm Beach, FL

Change the Weather History Date:

Tuesday, February 18, 2014

  Actual Average Record
Temperature  
Mean Temperature 68 °F 68 °F  
Max Temperature 79 °F 77 °F 90 °F (1942)
Min Temperature 57 °F 60 °F 37 °F (1977)
Degree Days  
Heating Degree Days 0 2  
Month to date heating degree days 13 36  
Since 1 July heating degree days 115 193  
Cooling Degree Days 3 5  
Month to date cooling degree days 125 78  
Year to date cooling degree days 247 186  
Growing Degree Days 18 (Base 50)    
Moisture  
Dew Point 56 °F    
Average Humidity 68    
Maximum Humidity 93    
Minimum Humidity 43    
Precipitation  
Precipitation 0.00 in 0.09 in 1.60 in (1920)
Month to date precipitation 0.77 1.73  
Year to date precipitation 11.19 4.86  
Snow  
Snow 0.00 in - - ()
Month to date snowfall 0.0  
Since 1 July snowfall 0.0  
Snow Depth 0.00 in    
Sea Level Pressure  
Sea Level Pressure 30.19 in    
Wind  
Wind Speed 6 mph (East)    
Max Wind Speed 14 mph    
Max Gust Speed 18 mph    
Visibility 10 miles    
Events      
T = Trace of Precipitation, MM = Missing Value Source: NWS Daily Summary

Daily Weather History Graph

Daily Weather History Graph

Search for Another Location

Airport:

Trip Planner

Search our weather history database for the weather conditions in past years. The results will help you decide how hot, cold, wet, or windy it might be!

Date:

Astronomy

Feb. 18, 2014 Rise Set
Actual Time 6:54 AM EST 6:14 PM EST
Civil Twilight 6:30 AM EST 6:38 PM EST
Nautical Twilight 6:03 AM EST 7:05 PM EST
Astronomical Twilight 5:36 AM EST 7:32 PM EST
Moon 9:40 PM EST (2/18) 8:48 AM EST (2/18)
Length of Visible Light 12h 07m
Length of Day
11h 20m
Waning Gibbous, 87% of the Moon is Illuminated
Feb 18
Waning Gibbous
Feb 22
Last Quarter
Mar 1
New
Mar 8
First Quarter
Mar 16
Full

Hourly Weather History & Observations

Time (EST) Temp. Dew Point Humidity Pressure Visibility Wind Dir Wind Speed Gust Speed Precip Events Conditions
12:53 AM 66.0 °F 57.0 °F 73% 30.18 in 10.0 mi SE 6.9 mph - N/A   Partly Cloudy
1:53 AM 66.9 °F 57.9 °F 73% 30.18 in 10.0 mi SE 3.5 mph - N/A   Clear
2:53 AM 64.0 °F 57.0 °F 78% 30.18 in 10.0 mi Calm Calm - N/A   Clear
3:53 AM 60.1 °F 55.9 °F 86% 30.17 in 10.0 mi Calm Calm - N/A   Clear
4:53 AM 60.1 °F 55.9 °F 86% 30.16 in 10.0 mi Calm Calm - N/A   Clear
5:53 AM 57.9 °F 55.0 °F 90% 30.17 in 10.0 mi NW 3.5 mph - N/A   Clear
6:53 AM 57.9 °F 55.0 °F 90% 30.19 in 10.0 mi Calm Calm - N/A   Partly Cloudy
7:53 AM 64.0 °F 59.0 °F 84% 30.21 in 10.0 mi Calm Calm - N/A   Partly Cloudy
8:53 AM 73.9 °F 61.0 °F 64% 30.22 in 10.0 mi Calm Calm - N/A   Partly Cloudy
9:53 AM 75.0 °F 57.9 °F 55% 30.23 in 10.0 mi ESE 8.1 mph - N/A   Scattered Clouds
10:53 AM 77.0 °F 55.9 °F 48% 30.24 in 10.0 mi ENE 8.1 mph - N/A   Scattered Clouds
11:53 AM 77.0 °F 59.0 °F 54% 30.23 in 10.0 mi ESE 10.4 mph - N/A   Mostly Cloudy
12:53 PM 77.0 °F 55.9 °F 48% 30.21 in 10.0 mi East 9.2 mph - N/A   Scattered Clouds
1:53 PM 77.0 °F 59.0 °F 54% 30.19 in 10.0 mi Variable 5.8 mph 17.3 mph N/A   Scattered Clouds
2:53 PM 77.0 °F 59.0 °F 54% 30.18 in 10.0 mi ESE 10.4 mph - N/A   Partly Cloudy
3:53 PM 77.0 °F 55.0 °F 47% 30.17 in 10.0 mi East 12.7 mph - N/A   Partly Cloudy
4:53 PM 75.9 °F 54.0 °F 46% 30.17 in 10.0 mi East 8.1 mph - N/A   Partly Cloudy
5:53 PM 75.0 °F 52.0 °F 44% 30.17 in 10.0 mi East 10.4 mph - N/A   Partly Cloudy
6:53 PM 73.0 °F 52.0 °F 48% 30.17 in 10.0 mi East 8.1 mph - N/A   Partly Cloudy
7:53 PM 73.0 °F 53.1 °F 49% 30.18 in 10.0 mi East 8.1 mph - N/A   Partly Cloudy
8:53 PM 71.1 °F 55.9 °F 59% 30.19 in 10.0 mi East 8.1 mph - N/A   Clear
9:53 PM 71.1 °F 59.0 °F 66% 30.19 in 10.0 mi East 8.1 mph - N/A   Clear
10:53 PM 70.0 °F 60.1 °F 71% 30.19 in 10.0 mi East 8.1 mph - N/A   Partly Cloudy
11:53 PM 69.1 °F 60.1 °F 73% 30.17 in 10.0 mi SE 5.8 mph - N/A   Scattered Clouds